This is the latest recevied weather packets stored in our database for station/object F5ZYU-10. If no packets are shown the sender has not sent any weather packets the latest 10 day(s).
| Time | Temp. | Humidity | Pressure | Rain* | Wind** | Luminosity | Snow |
|---|---|---|---|---|---|---|---|
| 1787442231 | 19.44° C | 72% | 1026.4 hPa | - | - | - | - |
| 1787440431 | 19.44° C | 72% | 1026.5 hPa | - | - | - | - |
| 1787439524 | 19.44° C | 72% | 1026.8 hPa | - | - | - | - |
| 1787438624 | 20° C | 72% | 1026.7 hPa | - | - | - | - |
| 1787437724 | 20° C | 72% | 1026.6 hPa | - | - | - | - |
| 1787436824 | 20° C | 71% | 1026.7 hPa | - | - | - | - |
| 1787435924 | 20° C | 70% | 1026.6 hPa | - | - | - | - |
| 1787435023 | 20° C | 70% | 1026.6 hPa | - | - | - | - |
| 1787434150 | 20° C | 69% | 1026.7 hPa | - | - | - | - |
| 1787433224 | 20° C | 68% | 1026.8 hPa | - | - | - | - |
| 1787432343 | 20° C | 67% | 1026.8 hPa | - | - | - | - |
| 1787431454 | 20.56° C | 67% | 1027.1 hPa | - | - | - | - |
| 1787430518 | 20.56° C | 66% | 1027 hPa | - | - | - | - |
| 1787429624 | 20.56° C | 66% | 1026.9 hPa | - | - | - | - |
| 1787428722 | 20.56° C | 65% | 1026.8 hPa | - | - | - | - |
| 1787425101 | 21.11° C | 64% | 1026.2 hPa | - | - | - | - |
| 1787423300 | 21.11° C | 63% | 1026.1 hPa | - | - | - | - |
| 1787422400 | 21.67° C | 62% | 1026.1 hPa | - | - | - | - |
| 1787421502 | 21.67° C | 61% | 1026.2 hPa | - | - | - | - |
| 1787419700 | 21.67° C | 62% | 1026.1 hPa | - | - | - | - |
| 1787410703 | 20.56° C | 67% | 1026.6 hPa | - | - | - | - |
| 1787409801 | 20° C | 69% | 1026.6 hPa | - | - | - | - |
| 1787408001 | 20° C | 69% | 1026.6 hPa | - | - | - | - |
| 1787407101 | 20° C | 70% | 1026.6 hPa | - | - | - | - |
| 1787405301 | 19.44° C | 72% | 1026.7 hPa | - | - | - | - |
* Rain since midnight (hover to see other rain measurements)
** Current wind speed in m/s (hover to see current wind gust speed)